Wind_Speed
11 9 7 10 8 9 15 16 14 10 7 5 8 10 9 15 14 9 11 11 10 7 7 10 13 14 14 13 13 13 13 13 12 12 11 11 11 10 9 9 8 7 7 6 5 5 6 7 8
9 9 10 10 10 15 15 16 16 15 16 14 11 10 12 13 14 13 12 12 10 7 7 10 11 13 13 13 13 13 13 14 13 12 11 11 11 10 9 9 8 8 7 7 7 7 8 8 8
15 10 14 7 15 23 15 10 9 11 12 14 11 11 14 14 12 11 13 13 10 7 6 11 11 12 12 11 13 14 14 14 13 13 12 11 11 10 9 8 7 7 7 7 8 8 8 9 9
11 16 13 15 17 13 10 10 9 9 8 10 11 11 14 17 15 14 15 12 13 10 6 12 13 12 12 10 13 14 15 14 13 12 11 11 11 9 8 8 7 6 6 8 8 8 9 9 8
11 16 18 15 23 26 19 16 16 15 14 10 10 16 16 13 13 15 15 15 15 13 9 10 14 14 13 12 13 14 15 14 14 12 11 10 10 9 8 7 7 7 7 7 7 8 8 8 7
18 18 20 26 27 20 19 16 19 23 20 20 21 18 17 18 15 16 14 13 14 13 12 10 15 16 14 13 13 15 15 14 14 14 13 12 11 11 10 10 9 9 8 7 7 8 8 7 7
21 21 25 28 29 27 19 20 22 26 28 24 25 27 22 22 20 16 19 17 19 18 15 13 15 18 18 16 15 16 17 15 15 14 13 12 11 12 12 12 11 10 9 8 9 9 9 8 7
21 23 28 31 31 32 25 22 23 28 29 25 25 21 24 28 26 24 22 19 18 18 17 16 17 18 20 20 19 18 19 18 17 16 15 13 12 12 13 13 13 12 10 9 9 10 9 9 8
23 24 32 32 30 29 28 26 24 25 30 27 26 23 23 28 27 23 24 22 22 23 23 22 20 20 21 21 22 22 22 22 20 18 16 15 14 13 13 13 12 10 8 9 10 11 11 11 10
20 24 23 26 28 31 31 32 31 31 33 33 28 28 30 23 27 27 23 23 21 23 24 23 23 23 22 23 24 26 25 26 24 22 18 16 16 15 14 13 13 12 7 7 9 10 11 10 10
13 18 20 25 28 31 32 33 33 35 37 34 35 35 34 35 30 30 28 27 23 23 25 27 27 25 25 25 26 27 27 27 28 27 24 20 19 18 17 16 14 13 10 9 9 11 11 11 11
12 15 18 21 24 30 32 37 38 36 38 39 40 40 40 38 40 36 33 32 30 27 26 26 27 25 26 27 26 27 27 28 29 29 27 25 22 20 19 17 17 16 15 13 11 11 13 14 14
10 13 16 19 23 26 31 34 35 38 36 34 38 42 43 44 43 42 41 39 37 33 30 29 29 28 27 28 28 29 28 28 29 30 29 27 25 23 21 20 20 19 18 16 15 15 15 16 17
17 17 17 15 16 22 29 30 31 33 36 36 36 39 40 44 46 47 45 43 42 40 37 37 35 34 32 31 30 29 30 29 29 30 30 29 28 26 24 23 22 22 21 20 20 19 18 18 18
14 16 12 16 24 30 34 34 23 28 31 33 32 34 39 43 46 48 49 47 43 44 43 41 42 40 38 35 34 33 31 31 31 31 32 31 29 29 25 25 24 23 23 23 22 22 21 20 21
19 13 28 23 28 25 32 40 33 34 38 38 38 42 43 43 41 46 50 50 48 45 47 45 43 45 42 39 37 36 35 33 33 33 33 33 32 30 30 29 29 25 24 24 24 25 24 23 24
20 27 31 28 25 32 28 41 38 32 34 39 37 36 38 41 43 44 44 51 51 50 48 48 45 47 46 44 40 38 37 36 35 35 35 36 34 34 32 34 33 34 27 25 24 25 26 27 26
24 28 33 32 34 29 33 39 34 28 30 34 30 24 24 28 33 38 42 42 51 55 52 49 46 42 50 47 42 39 40 38 36 36 37 38 38 36 36 35 31 31 29 28 25 26 27 27 27
25 28 31 32 26 38 36 41 33 31 25 24 21 17 16 16 16 20 31 38 43 51 56 54 49 44 40 46 46 51 41 42 39 37 38 40 40 37 37 35 38 42 34 30 27 26 28 28 29
24 24 29 27 31 37 37 33 29 24 9 15 12 16 15 12 8 9 15 23 38 45 52 56 55 52 47 43 53 52 47 43 35 36 38 40 43 41 45 37 41 35 32 34 32 30 30 29 26
25 22 27 28 34 35 26 33 32 13 16 23 20 18 19 25 19 9 15 15 22 39 47 52 56 55 53 46 44 47 43 39 40 42 35 39 39 38 48 38 41 38 35 35 33 30 30 32 26
29 26 25 30 30 15 23 9 23 20 15 15 7 15 25 33 26 25 23 17 18 23 41 49 52 58 57 53 50 48 45 40 37 42 47 46 37 40 40 42 48 35 32 35 28 38 30 30 34
28 28 27 29 18 16 10 6 15 15 20 16 22 26 25 28 30 30 33 29 25 23 23 41 53 53 58 58 58 53 46 41 40 35 32 36 39 39 39 43 39 40 39 32 30 33 31 31 39
25 27 19 12 7 3 2 3 25 15 18 26 28 31 36 40 42 43 44 40 34 30 28 27 43 54 55 57 59 58 54 49 48 38 35 33 35 36 43 39 43 35 38 39 35 36 39 26 34
21 22 8 5 2 5 5 14 18 22 25 29 32 35 51 57 57 52 47 42 35 35 35 33 32 46 56 55 55 62 54 54 47 43 36 34 34 37 41 38 42 36 39 38 39 40 39 36 41
12 13 4 4 4 12 28 10 15 32 32 30 28 49 61 52 43 39 36 35 34 34 36 37 34 34 51 58 54 55 55 54 52 47 40 37 32 36 45 44 36 36 40 50 47 38 36 39 39
9 10 15 9 15 8 8 16 32 22 27 37 59 66 55 47 44 43 41 38 34 33 34 38 38 35 36 55 57 53 52 54 57 51 48 45 45 37 47 45 46 49 36 46 37 40 34 30 32
10 11 6 6 5 6 9 19 22 28 38 56 67 55 49 50 52 45 35 31 31 31 34 36 38 37 33 43 55 51 46 45 47 52 53 49 45 48 41 48 41 42 44 41 36 43 31 34 29
9 8 6 10 7 3 6 15 28 30 51 65 57 52 53 50 43 35 28 22 23 25 32 35 36 34 36 36 51 54 48 34 39 42 45 46 41 45 45 44 44 46 40 37 43 37 35 31 27
11 14 13 3 5 13 14 17 27 49 58 53 51 50 49 41 35 32 26 20 15 19 27 33 33 31 36 35 46 52 46 42 32 34 37 40 43 33 47 37 41 45 39 38 33 37 35 26 21
Wind_Direction
238 248 255 254 240 225 231 241 259 253 253 279 276 288 257 246 257 276 306 306 319 315 243 228 210 227 228 228 223 209 207 205 203 199 194 186 186 184 180 178 168 164 156 151 153 151 141 135 127
222 242 252 250 238 235 247 252 264 273 261 262 290 269 261 252 257 263 290 300 305 314 244 231 230 231 225 233 223 213 206 200 200 197 192 187 185 188 184 180 173 168 162 159 154 147 141 135 133
229 242 247 246 249 243 246 247 281 258 246 249 256 268 261 258 263 271 286 292 294 297 264 221 229 225 232 236 220 208 204 200 195 194 191 191 189 185 189 186 179 176 169 160 154 149 145 144 152
209 241 242 245 246 257 256 281 252 220 207 219 243 253 261 254 262 271 283 278 285 290 268 225 221 229 240 241 223 208 199 195 197 199 196 188 190 193 191 186 188 178 168 161 159 155 157 162 159
239 229 243 257 252 253 259 291 244 229 231 231 268 245 246 249 266 264 266 273 275 275 268 233 224 224 233 242 226 215 208 198 200 198 194 190 194 196 189 190 184 175 168 169 170 172 177 180 175
230 228 231 243 254 263 259 254 257 243 238 255 272 266 252 254 254 272 261 262 263 260 259 243 229 223 223 234 234 218 215 212 210 203 198 195 196 193 193 186 182 182 181 184 187 190 190 189 184
231 230 243 253 260 264 263 259 253 253 246 265 275 273 262 262 262 264 267 261 261 261 255 246 232 228 223 221 224 226 219 218 215 216 212 208 204 199 196 189 189 191 193 198 205 205 199 194 189
236 239 249 255 260 272 273 261 261 261 256 257 263 264 259 254 255 253 252 256 251 251 256 250 240 230 229 226 219 218 220 220 217 217 217 218 214 211 207 201 198 200 201 201 212 213 206 199 198
249 249 254 258 265 270 271 267 258 256 263 268 256 258 252 248 250 252 251 254 256 255 259 253 245 236 230 227 227 221 215 217 219 220 219 221 220 218 218 214 214 220 225 218 214 210 210 211 211
237 248 259 266 269 270 269 268 270 263 259 258 256 255 259 255 246 246 242 244 251 256 256 253 248 243 235 231 227 226 223 217 217 221 223 224 224 219 219 223 224 232 242 239 224 221 222 225 227
272 266 272 273 278 279 280 276 272 273 269 262 258 251 250 251 250 246 244 236 240 241 249 252 250 246 241 237 236 233 228 225 220 218 219 221 223 220 220 222 226 232 238 242 234 227 230 234 239
291 294 291 288 282 282 282 282 282 275 274 273 264 258 253 245 245 246 244 242 237 237 239 243 242 240 241 243 240 240 237 231 226 223 221 221 221 222 223 222 224 227 228 229 237 235 237 240 244
326 320 306 297 291 288 285 284 286 284 284 276 271 266 259 251 246 243 244 241 239 235 233 235 235 239 242 241 240 239 239 237 232 228 225 226 225 221 220 222 222 226 231 231 235 235 236 242 246
329 322 318 315 310 308 295 289 286 289 286 281 275 268 263 257 250 244 241 241 241 238 233 235 234 236 237 237 237 238 239 238 233 228 227 229 227 225 222 223 224 226 229 231 234 237 238 243 249
330 325 331 336 326 319 309 303 300 310 296 288 281 270 263 258 252 248 241 239 238 239 237 237 233 230 232 231 232 234 236 236 234 227 224 227 232 228 225 225 226 228 230 235 239 243 244 248 251
347 344 342 345 333 323 318 308 321 321 314 302 288 279 270 263 261 251 243 238 235 235 235 235 238 231 231 229 229 231 233 233 233 230 223 226 229 224 236 233 224 228 231 235 240 244 247 250 253
351 340 340 342 337 324 328 316 331 333 315 302 298 290 282 273 263 255 251 240 234 233 234 233 234 234 234 232 228 230 232 233 231 229 224 227 228 234 228 232 229 236 238 237 240 246 249 253 253
343 340 335 334 331 320 320 314 331 336 312 302 295 307 302 284 272 259 252 252 239 232 231 232 233 232 234 230 230 233 234 232 230 227 227 227 230 234 230 231 241 239 232 237 242 249 255 255 259
346 337 328 332 339 322 321 315 323 328 319 307 292 308 313 309 303 285 259 244 245 238 234 229 230 233 237 224 226 237 228 235 231 228 226 227 230 234 233 234 240 236 245 243 241 249 256 257 267
343 336 336 337 336 320 321 319 331 338 336 348 313 315 313 304 307 311 286 258 239 239 237 234 229 229 230 236 224 230 225 230 235 238 236 233 230 229 242 239 236 239 233 232 244 244 260 258 248
346 340 335 325 324 318 324 325 344 354 327 310 306 297 308 316 302 308 324 300 255 237 236 237 233 229 226 233 225 229 234 230 229 234 237 236 239 230 230 234 238 235 242 238 240 245 254 246 265
338 331 327 318 319 310 314 289 340 334 330 321 307 311 301 301 301 284 295 297 294 259 236 234 235 231 230 226 232 235 233 234 229 231 235 228 246 232 233 236 237 233 237 229 252 227 249 258 246
330 327 325 309 303 305 304 262 297 324 327 309 308 308 302 300 300 300 296 286 281 274 261 238 231 231 229 229 230 235 235 241 236 242 245 239 251 229 239 230 235 235 239 246 243 240 244 248 249
334 329 326 306 301 270 264 280 299 314 317 317 312 306 309 302 298 296 293 284 273 259 258 255 238 228 228 228 228 232 233 236 243 243 242 241 243 244 234 258 228 231 240 242 235 235 240 248 250
337 354 343 349 346 238 293 313 283 315 315 310 306 308 315 310 306 301 295 287 275 255 250 249 247 232 225 226 226 231 232 234 238 238 241 243 247 244 236 240 234 240 243 247 231 238 240 249 240
357 11 63 288 297 294 301 236 309 314 309 303 304 308 311 313 307 299 291 280 269 256 250 239 240 236 226 223 222 226 229 232 232 235 237 243 242 243 243 243 254 244 262 251 248 237 240 243 248
344 344 323 266 276 275 268 288 310 321 312 316 321 320 320 316 310 303 297 285 273 255 240 236 231 228 229 222 222 226 229 232 234 235 235 238 247 242 239 254 237 245 253 250 240 240 243 249 259
330 333 332 297 309 296 274 297 301 322 316 328 326 325 325 320 315 311 303 286 268 250 235 229 229 222 220 221 219 221 229 234 233 232 232 234 242 246 235 245 261 236 235 244 232 237 244 253 257
323 326 321 296 260 272 306 301 324 318 328 329 329 332 329 326 324 321 316 297 270 242 231 226 224 222 216 218 214 216 219 226 227 225 227 228 232 250 241 244 245 234 234 235 229 248 235 248 254
312 316 319 313 303 279 273 278 335 330 335 334 335 336 334 333 328 324 321 311 281 244 223 222 222 217 213 216 214 213 215 226 229 215 225 228 227 247 244 248 236 238 240 225 242 229 236 253 246
Height
3125 3126 3127 3129 3134 3128 3127 3130 3132 3133 3134 3133 3133 3133 3133 3133 3133 3137 3135 3133 3132 3131 3131 3133 3133 3136 3137 3138 3139 3139 3141 3143 3145 3146 3146 3148 3150 3151 3152 3153 3154 3155 3156 3157 3158 3159 3161 3162 3163
3122 3124 3126 3127 3128 3126 3125 3128 3128 3131 3131 3130 3131 3132 3132 3132 3131 3132 3133 3133 3131 3130 3130 3132 3133 3134 3136 3137 3137 3139 3140 3142 3143 3145 3146 3147 3149 3150 3151 3152 3153 3154 3155 3156 3158 3159 3160 3162 3163
3119 3121 3124 3125 3123 3122 3123 3125 3125 3127 3127 3128 3129 3131 3130 3130 3130 3130 3131 3131 3131 3129 3129 3130 3132 3133 3135 3136 3136 3137 3139 3141 3142 3144 3145 3147 3148 3149 3150 3151 3153 3154 3155 3156 3157 3159 3160 3161 3162
3118 3120 3123 3122 3118 3120 3119 3122 3124 3124 3125 3125 3126 3127 3128 3129 3129 3129 3129 3129 3129 3129 3128 3128 3130 3132 3134 3135 3136 3136 3137 3139 3142 3143 3144 3146 3147 3149 3149 3150 3152 3153 3155 3156 3158 3159 3160 3161 3162
3115 3117 3121 3117 3116 3116 3117 3119 3121 3121 3121 3123 3123 3124 3124 3125 3126 3127 3127 3127 3127 3127 3126 3127 3128 3129 3132 3134 3134 3136 3137 3138 3139 3141 3143 3145 3146 3147 3149 3150 3152 3153 3154 3156 3158 3159 3160 3161 3162
3116 3116 3116 3112 3110 3113 3115 3118 3118 3119 3119 3120 3121 3120 3122 3124 3124 3124 3124 3125 3125 3125 3125 3125 3126 3127 3129 3131 3133 3134 3136 3137 3138 3140 3141 3142 3144 3145 3147 3149 3150 3152 3154 3155 3156 3157 3158 3160 3161
3110 3113 3109 3109 3110 3111 3113 3114 3114 3115 3116 3117 3116 3116 3120 3119 3120 3121 3121 3121 3122 3123 3122 3122 3122 3124 3126 3127 3129 3132 3134 3136 3137 3139 3141 3142 3143 3144 3146 3147 3148 3150 3151 3154 3154 3155 3157 3158 3159
3106 3108 3105 3106 3106 3106 3107 3109 3111 3109 3110 3112 3112 3112 3113 3113 3115 3116 3116 3117 3118 3119 3120 3120 3120 3121 3122 3124 3125 3127 3130 3133 3135 3137 3139 3141 3142 3144 3145 3146 3147 3148 3149 3151 3152 3154 3155 3157 3158
3102 3104 3100 3102 3102 3101 3100 3102 3106 3105 3106 3107 3108 3107 3107 3107 3109 3111 3112 3113 3115 3116 3116 3117 3117 3117 3118 3120 3122 3123 3125 3128 3132 3134 3136 3138 3140 3142 3144 3145 3146 3148 3149 3150 3151 3151 3153 3155 3156
3100 3099 3099 3098 3096 3095 3096 3096 3096 3099 3098 3100 3102 3102 3103 3103 3103 3105 3107 3108 3109 3112 3112 3113 3114 3114 3115 3116 3118 3119 3121 3122 3126 3130 3134 3136 3137 3139 3141 3143 3145 3146 3148 3149 3149 3150 3152 3153 3154
3095 3095 3096 3094 3093 3090 3089 3090 3090 3089 3089 3093 3094 3094 3094 3096 3097 3097 3100 3101 3103 3103 3105 3108 3109 3110 3111 3112 3113 3115 3117 3119 3121 3124 3128 3132 3134 3136 3137 3140 3142 3143 3146 3147 3147 3148 3150 3151 3152
3093 3093 3092 3091 3089 3085 3084 3081 3080 3082 3082 3083 3082 3082 3084 3086 3087 3090 3091 3092 3095 3096 3098 3100 3103 3104 3106 3107 3109 3111 3113 3115 3117 3120 3123 3125 3129 3132 3134 3136 3138 3140 3141 3143 3144 3146 3147 3148 3149
3090 3090 3088 3086 3084 3082 3078 3075 3074 3071 3072 3073 3072 3071 3071 3073 3076 3079 3082 3083 3085 3087 3090 3093 3095 3098 3099 3101 3103 3105 3107 3110 3113 3115 3118 3121 3125 3127 3129 3131 3134 3136 3137 3140 3141 3142 3143 3144 3144
3088 3086 3085 3084 3081 3078 3072 3071 3068 3068 3063 3060 3060 3060 3060 3060 3063 3067 3069 3074 3076 3079 3081 3084 3086 3089 3091 3094 3096 3099 3101 3104 3106 3109 3113 3116 3120 3122 3124 3127 3129 3131 3132 3134 3136 3137 3138 3139 3140
3085 3085 3082 3080 3077 3072 3065 3062 3064 3063 3059 3054 3052 3050 3047 3047 3049 3052 3057 3060 3065 3068 3071 3074 3078 3080 3082 3085 3088 3091 3093 3096 3099 3103 3106 3110 3113 3117 3119 3121 3123 3126 3128 3129 3131 3133 3134 3135 3136
3081 3079 3076 3078 3072 3067 3063 3052 3059 3055 3049 3045 3042 3040 3038 3037 3036 3039 3042 3046 3052 3055 3059 3064 3066 3069 3072 3076 3079 3083 3085 3089 3092 3095 3100 3103 3106 3110 3112 3115 3117 3121 3122 3124 3125 3127 3128 3129 3130
3076 3074 3072 3068 3066 3060 3059 3048 3051 3049 3041 3032 3029 3027 3025 3024 3025 3027 3028 3033 3038 3042 3046 3051 3055 3058 3062 3067 3070 3074 3077 3080 3085 3088 3092 3096 3099 3102 3104 3108 3111 3115 3116 3118 3120 3121 3123 3124 3125
3074 3069 3066 3065 3061 3055 3053 3045 3044 3040 3031 3026 3020 3020 3017 3014 3013 3015 3018 3021 3025 3029 3033 3039 3044 3047 3051 3055 3060 3064 3067 3071 3075 3080 3084 3089 3092 3096 3097 3102 3104 3107 3108 3112 3114 3116 3117 3118 3119
3072 3070 3065 3063 3059 3049 3046 3038 3035 3032 3026 3022 3018 3017 3013 3010 3007 3005 3006 3009 3011 3016 3022 3026 3033 3038 3042 3042 3050 3048 3049 3062 3066 3071 3076 3080 3084 3088 3091 3094 3096 3099 3103 3106 3107 3108 3110 3111 3113
3071 3067 3063 3058 3055 3048 3042 3034 3031 3026 3022 3019 3016 3015 3012 3008 3004 3002 3000 2998 2999 3003 3007 3014 3020 3027 3032 3036 3039 3043 3036 3052 3058 3062 3067 3072 3076 3081 3079 3085 3089 3092 3094 3096 3099 3101 3104 3106 3108
3070 3066 3062 3058 3050 3044 3037 3028 3025 3023 3020 3016 3014 3012 3010 3005 3002 2996 2996 2994 2991 2993 2996 3001 3007 3014 3021 3026 3032 3035 3038 3043 3048 3054 3057 3063 3067 3071 3074 3078 3082 3084 3088 3089 3092 3094 3096 3098 3101
3065 3063 3060 3055 3050 3044 3040 3032 3021 3021 3018 3015 3011 3009 3006 3001 2997 2992 2990 2989 2987 2984 2985 2988 2994 3001 3010 3016 3021 3025 3030 3036 3042 3047 3051 3050 3056 3061 3064 3069 3072 3075 3078 3080 3085 3087 3090 3093 3094
3065 3059 3056 3049 3046 3043 3037 3037 3017 3017 3014 3011 3009 3005 3000 2995 2990 2986 2982 2980 2979 2978 2976 2976 2981 2987 2996 3004 3011 3014 3022 3028 3033 3038 3043 3048 3050 3051 3056 3060 3062 3067 3071 3074 3078 3080 3081 3084 3087
3062 3056 3050 3045 3043 3043 3034 3035 3013 3012 3010 3005 3002 2997 2991 2985 2980 2976 2972 2968 2967 2967 2967 2967 2968 2975 2983 2991 2999 3004 3012 3019 3024 3032 3036 3039 3043 3045 3049 3052 3054 3060 3061 3064 3068 3071 3071 3076 3078
3062 3057 3050 3049 3046 3041 3032 3031 3012 3009 3005 3001 2995 2989 2982 2974 2965 2958 2954 2952 2952 2953 2954 2956 2958 2963 2971 2978 2986 2993 3002 3008 3016 3025 3029 3033 3036 3038 3041 3042 3043 3051 3055 3056 3059 3061 3064 3067 3068
3063 3061 3063 3068 3053 3037 3029 3022 3009 3006 3002 2996 2992 2984 2972 2960 2952 2945 2940 2938 2937 2938 2941 2943 2946 2952 2957 2966 2975 2981 2991 2997 3007 3015 3021 3024 3028 3033 3034 3035 3040 3043 3045 3046 3049 3053 3056 3061 3062
3064 3063 3062 3057 3047 3042 3023 3014 3009 3003 2998 2994 2982 2968 2955 2946 2938 2931 2926 2923 2922 2923 2926 2930 2935 2941 2946 2954 2964 2973 2980 2987 2997 3006 3013 3016 3020 3024 3021 3028 3029 3033 3036 3040 3043 3046 3049 3051 3053
3064 3063 3060 3058 3053 3043 3020 3012 3003 2999 2991 2981 2968 2954 2943 2933 2922 2913 2907 2904 2905 2907 2912 2917 2924 2931 2938 2944 2954 2965 2972 2980 2986 2994 3001 3007 3012 3013 3020 3019 3022 3024 3030 3032 3036 3038 3041 3045 3045
3062 3060 3059 3057 3053 3047 3028 3008 3003 2997 2985 2972 2957 2945 2932 2920 2909 2901 2896 2892 2891 2894 2899 2906 2914 2922 2930 2936 2944 2953 2965 2973 2980 2986 2992 2999 3005 3009 3010 3015 3015 3013 3021 3023 3027 3030 3035 3036 3038
3059 3057 3056 3055 3051 3046 3039 3007 3002 2995 2982 2968 2953 2939 2926 2914 2903 2895 2888 2884 2882 2885 2890 2898 2906 2914 2922 2928 2935 2948 2960 2968 2974 2977 2985 2992 2999 2999 3004 3005 3011 3014 3012 3018 3021 3024 3026 3030 3033